Weather observations for the past three days for
Bellingham, Bellingham International Airport
Imperial (Metric)
Date Time (pdt) Wind (mph) Vis. (mi.) Weather Sky Cond. Temperature (ºF) Relative Humidity Wind Chill (°F) Heat Index (°F) Pressure Precipitation (in)
Air Dwpt 6 hour altimeter (in) sea level (mb) 1 hr 3 hr 6 hr
Max. Min.
04 00:53 Calm 10.00 Fair CLR 53.1 46.9 80% 29.8 1009.8
03 23:53 Calm 10.00 Fair CLR 55 48.9 80% 29.79 1009.3
03 22:53 Calm 10.00 Fair CLR 55 48 75.9 55 77% 29.8 1009.5
03 21:53 Calm 10.00 Fair CLR 57 48.9 74% 29.8 1009.8
03 20:53 Calm 10.00 Fair CLR 59 52 78% 29.8 1009.8
03 19:53 S 3 10.00 Fair CLR 64 55 73% 29.8 1009.7
03 18:53 S 3 10.00 Fair CLR 70 53.1 55% 29.81 1010.1
03 17:53 W 3 10.00 Fair CLR 73.9 51.1 45% 29.83 1010.7
03 16:53 NW 6 10.00 Fair CLR 75 51.1 75.9 69.1 43% 78 29.84 1011.2
03 15:53 W 8 10.00 Fair CLR 73.9 53.1 48% 29.87 1011.9
03 14:53 Vrbl 6 10.00 Fair CLR 73 52 48% 29.89 1012.6
03 13:53 Vrbl 6 10.00 Fair CLR 73 46.9 40% 29.9 1013.2
03 12:53 W 8 10.00 Fair CLR 71.1 48 44% 29.93 1014.1
03 11:53 W 8 10.00 Fair CLR 70 53.1 55% 29.93 1014.1
03 10:53 N 5 10.00 Fair CLR 70 48.9 70 45 47% 29.95 1014.7
03 09:53 NW 7 10.00 Fair CLR 66.9 50 55% 29.96 1015.2
03 08:53 N 3 10.00 Fair CLR 60.1 52 75% 29.97 1015.6
03 07:53 Calm 10.00 Fair CLR 57 50 78% 29.98 1015.7
03 06:53 Calm 10.00 Fair CLR 48.9 48 97% 29.97 1015.5
03 05:53 Calm 9.00 Fair CLR 48 46.9 96% 29.96 1015.2
03 04:53 Calm 10.00 Fair CLR 48 46 55 46 93% 29.96 1015.2
03 03:53 Calm 10.00 Fair CLR 46.9 46 97% 29.97 1015.3
03 02:53 Calm 10.00 Fair CLR 48.9 48 97% 29.96 1015.1
03 01:53 Calm 10.00 Fair CLR 51.1 48.9 92% 29.96 1015.1
03 00:53 Calm 10.00 Fair CLR 51.1 48.9 92% 29.96 1015.1
02 23:53 Calm 10.00 Fair CLR 54 48.9 83% 29.95 1014.8
02 22:53 Calm 10.00 Fair CLR 54 48.9 72 54 83% 29.94 1014.6
02 21:53 Calm 10.00 Fair CLR 55.9 50 81% 29.95 1014.7
02 20:53 Calm 10.00 Fair CLR 57.9 54 87% 29.94 1014.3
02 19:53 S 3 10.00 Fair CLR 64 54 70% 29.92 1013.9
02 18:53 Calm 10.00 Fair CLR 70 53.1 55% 29.93 1014.0
02 17:53 Vrbl 3 10.00 Fair CLR 71.1 48.9 46% 29.94 1014.4
02 16:53 Vrbl 3 10.00 Fair CLR 71.1 51.1 73 64.9 49% 29.95 1014.8
02 15:53 Vrbl 5 10.00 Fair CLR 71.1 52 51% 29.97 1015.4
02 14:53 Vrbl 6 10.00 Fair CLR 69.1 52 55% 29.99 1016.1
02 13:53 Vrbl 7 10.00 Fair CLR 69.1 50 51% 30.01 1016.7
02 12:53 NW 10 10.00 Fair CLR 68 54 61% 30.02 1017.2
02 11:53 N 5 10.00 Fair CLR 70 50 49% 30.02 1017.2
02 10:53 NE 9 10.00 Fair CLR 64.9 51.1 66 50 61% 30.04 1017.7 0.01
02 09:53 NW 8 10.00 A Few Clouds FEW100 63 54 73% 30.04 1017.9
02 08:53 NW 6 10.00 Overcast OVC110 60.1 54 80% 30.05 1018.3
02 07:53 Calm 10.00 Fair CLR 55.9 52 87% 30.06 1018.4 0.01 0.01
02 06:53 Calm 10.00 Light Rain SCT038 SCT075 BKN100 54 52 93% 30.04 1017.8
02 05:53 Calm 9.00 Light Rain FEW060 BKN090 OVC110 51.1 50 96% 30.02 1017.2
02 04:53 Calm 10.00 Fair CLR 52 50 57 52 93% 30.02 1017.0
02 03:53 S 3 10.00 Partly Cloudy SCT110 53.1 50 89% 30 1016.5
02 02:53 S 3 10.00 Partly Cloudy SCT110 55 50 83% 30 1016.5
02 01:53 S 6 10.00 Mostly Cloudy BKN110 57 50 78% 30 1016.6
02 00:53 Calm 10.00 Mostly Cloudy BKN110 54 50 87% 30 1016.5
01 23:53 Calm 10.00 Mostly Cloudy BKN110 54 50 87% 29.99 1016.3
01 22:53 Calm 10.00 Fair CLR 53.1 50 66.9 53.1 89% 29.98 1015.9
01 21:53 S 6 10.00 Fair CLR 55.9 51.1 84% 29.99 1016.3
01 20:53 Calm 10.00 Fair CLR 55 51.1 87% 29.97 1015.5
01 19:53 Calm 10.00 Fair CLR 60.1 51.1 72% 29.96 1015.2
01 18:53 W 3 10.00 Fair CLR 64 48 56% 29.96 1015.0
01 17:53 NW 9 10.00 Fair CLR 66 46.9 50% 29.96 1015.3
01 16:53 Vrbl 7 10.00 Fair CLR 66.9 50 70 61 55% 29.97 1015.4
01 15:53 W 8 10.00 Fair CLR 69.1 51.1 53% 29.98 1015.8
01 14:53 W 6 10.00 Fair CLR 68 52 57% 30 1016.3
01 13:53 NW 7 10.00 Fair CLR 66 53.1 63% 30.01 1016.8
01 12:53 Vrbl 6 10.00 Fair CLR 66 51.1 59% 30.01 1016.9
01 11:53 Calm 10.00 Fair CLR 63 52 68% 30.03 1017.4
01 10:53 Vrbl 3 10.00 Fair CLR 61 48.9 62.1 45 65% 30.03 1017.7
01 09:53 Vrbl 5 10.00 Fair CLR 57.9 46.9 67% 30.04 1018.0
01 08:53 W 5 10.00 Fair CLR 55.9 48 75% 30.04 1018.0
01 07:53 Vrbl 3 10.00 Fair CLR 54 48.9 83% 30.04 1017.7
01 06:53 Calm 10.00 Fair CLR 48.9 46.9 93% 30.02 1017.3
01 05:53 Calm 9.00 Fair CLR 45 45 100% 30.01 1016.9
01 04:53 Calm 9.00 A Few Clouds FEW100 48 46.9 55 48 96% 30.01 1016.7
01 03:53 Calm 10.00 A Few Clouds FEW100 50 48.9 96% 30 1016.6
01 02:53 S 3 10.00 A Few Clouds FEW100 51.1 48 89% 30.01 1016.7
01 01:53 S 5 10.00 Fair CLR 54 50 87% 30.01 1016.8
Date Time (pdt) Wind (mph) Vis. (mi.) Weather Sky Cond. Air Dwpt Max. Min. Relative Humidity Wind Chill (°F) Heat Index (°F) altimeter (in) sea level (mb) 1 hr 3 hr 6 hr
6 hour
Temperature (ºF) Pressure Precipitation (in)